SCP
2 2 4 5 4 5 3 3 2 2 0 2 1 1 1 1 1 1 1 1 1 1
5 5 4 2 3 3 3 2 3 1 0 0 1 1 1 1 1 1 1 1 1 1
2 2 3 4 3 1 2 1 0 1 1 1 1 1 1 1 1 1 1 1 0 0
2 2 2 2 1 0 0 1 2 2 2 2 1 2 3 2 1 1 1 0 0 0
2 1 2 2 2 3 3 3 2 1 1 1 1 1 2 1 0 0 0 0 0 0
1 1 1 1 1 1 2 3 2 2 2 1 1 1 1 1 0 0 0 0 0 0
0 0 0 0 0 0 0 0 0 0 0 0 0 0 0 0 1 1 1 1 0 0
0 0 0 0 0 0 0 0 0 0 0 0 0 0 0 0 0 0 0 0 0 0
0 0 0 0 0 0 0 0 0 0 0 0 0 0 0 0 0 0 0 0 0 0
0 0 0 0 0 0 0 0 0 0 0 0 0 0 0 0 0 0 0 0 0 0
0 0 0 0 0 0 0 0 0 0 0 0 0 0 0 0 0 0 0 0 0 0
0 0 0 0 0 0 0 0 0 0 0 0 0 0 0 0 0 0 0 0 0 0
0 0 0 0 0 0 0 0 0 0 0 0 0 0 0 0 0 0 0 0 0 0
0 0 0 0 0 0 0 0 0 0 0 0 0 0 0 0 0 0 0 0 0 0
Wind_Speed_500mb
61 74 64 54 55 59 61 58 50 64 51 48 55 56 53 53 49 40 39 39 40 40
62 70 67 52 51 62 49 56 55 64 39 42 50 61 52 47 41 36 42 43 44 42
39 41 39 38 41 44 39 46 31 47 39 49 45 46 49 43 39 42 44 44 40 39
9 25 38 24 24 35 18 27 22 33 38 44 46 45 46 44 41 40 35 39 41 42
21 19 18 11 6 6 5 16 12 15 25 29 31 33 40 43 44 45 49 53 56 57
19 18 17 9 8 6 6 5 9 17 22 28 31 34 41 46 51 59 62 60 66 64
4 7 5 9 16 18 18 20 25 29 31 33 40 43 49 53 57 60 61 59 64 68
7 5 7 14 18 23 29 33 36 38 43 47 50 51 52 59 62 68 71 74 77 84
12 15 20 24 27 28 33 40 46 51 56 60 65 68 67 73 80 85 87 90 92 90
19 23 29 32 39 42 45 54 59 62 68 72 73 74 75 76 82 88 95 98 93 89
26 27 30 35 42 49 55 60 62 63 60 61 64 64 67 72 78 85 88 87 84 80
30 34 37 42 48 54 59 64 69 69 63 56 55 56 64 71 78 84 87 89 88 88
38 40 43 47 56 59 55 50 48 54 61 68 74 76 77 75 77 87 92 94 93 83
42 46 47 47 44 48 56 61 65 64 69 67 59 61 65 68 65 63 65 66 67 71
Wind_Direction_500mb
242 235 240 236 229 240 239 237 223 211 215 257 214 221 220 215 224 229 238 247 253 259
239 240 241 253 245 237 235 233 219 207 224 217 219 216 220 217 233 240 245 250 261 267
247 249 236 237 246 248 223 213 201 203 200 195 208 211 222 229 231 236 251 262 269 268
288 234 229 251 263 267 124 163 169 171 194 200 210 217 223 236 230 233 247 258 262 266
100 97 82 96 139 237 123 160 142 190 218 229 233 241 249 255 263 257 259 256 259 266
90 89 113 109 114 129 143 179 230 244 247 256 264 266 269 267 267 272 269 267 263 262
319 336 323 261 264 271 275 263 255 256 258 260 262 260 260 261 263 267 271 273 272 273
330 276 290 286 289 287 282 280 279 278 276 275 272 270 275 276 273 271 270 268 270 270
315 305 301 306 307 302 297 290 284 285 283 281 278 272 265 263 268 271 274 275 270 267
314 318 317 306 295 288 284 283 284 285 285 284 283 281 281 280 280 276 275 277 281 280
311 303 295 287 286 289 290 288 291 291 287 285 289 290 290 285 281 278 278 278 279 280
304 299 293 293 291 288 289 291 290 293 298 297 289 281 277 277 278 278 279 279 279 277
301 299 294 291 293 300 304 302 291 281 278 278 279 277 283 286 284 282 282 281 283 284
297 297 302 306 293 283 282 286 286 285 288 295 296 296 295 294 293 291 291 288 285 281
Wind_Speed_850mb
61 74 64 54 55 59 61 58 50 64 51 48 55 56 53 53 49 40 39 39 40 40
62 70 67 52 51 62 49 56 55 64 39 42 50 61 52 47 41 36 42 43 44 42
39 41 39 38 41 44 39 46 31 47 39 49 45 46 49 43 39 42 44 44 40 39
9 25 38 24 24 35 18 27 22 33 38 44 46 45 46 44 41 40 35 39 41 42
21 19 18 11 6 6 5 16 12 15 25 29 31 33 40 43 44 45 49 53 56 57
19 18 17 9 8 6 6 5 9 17 22 28 31 34 41 46 51 59 62 60 66 64
4 7 5 9 16 18 18 20 25 29 31 33 40 43 49 53 57 60 61 59 64 68
7 5 7 14 18 23 29 33 36 38 43 47 50 51 52 59 62 68 71 74 77 84
12 15 20 24 27 28 33 40 46 51 56 60 65 68 67 73 80 85 87 90 92 90
19 23 29 32 39 42 45 54 59 62 68 72 73 74 75 76 82 88 95 98 93 89
26 27 30 35 42 49 55 60 62 63 60 61 64 64 67 72 78 85 88 87 84 80
30 34 37 42 48 54 59 64 69 69 63 56 55 56 64 71 78 84 87 89 88 88
38 40 43 47 56 59 55 50 48 54 61 68 74 76 77 75 77 87 92 94 93 83
42 46 47 47 44 48 56 61 65 64 69 67 59 61 65 68 65 63 65 66 67 71
Wind_Direction_850mb
242 235 240 236 229 240 239 237 223 211 215 257 214 221 220 215 224 229 238 247 253 259
239 240 241 253 245 237 235 233 219 207 224 217 219 216 220 217 233 240 245 250 261 267
247 249 236 237 246 248 223 213 201 203 200 195 208 211 222 229 231 236 251 262 269 268
288 234 229 251 263 267 124 163 169 171 194 200 210 217 223 236 230 233 247 258 262 266
100 97 82 96 139 237 123 160 142 190 218 229 233 241 249 255 263 257 259 256 259 266
90 89 113 109 114 129 143 179 230 244 247 256 264 266 269 267 267 272 269 267 263 262
319 336 323 261 264 271 275 263 255 256 258 260 262 260 260 261 263 267 271 273 272 273
330 276 290 286 289 287 282 280 279 278 276 275 272 270 275 276 273 271 270 268 270 270
315 305 301 306 307 302 297 290 284 285 283 281 278 272 265 263 268 271 274 275 270 267
314 318 317 306 295 288 284 283 284 285 285 284 283 281 281 280 280 276 275 277 281 280
311 303 295 287 286 289 290 288 291 291 287 285 289 290 290 285 281 278 278 278 279 280
304 299 293 293 291 288 289 291 290 293 298 297 289 281 277 277 278 278 279 279 279 277
301 299 294 291 293 300 304 302 291 281 278 278 279 277 283 286 284 282 282 281 283 284
297 297 302 306 293 283 282 286 286 285 288 295 296 296 295 294 293 291 291 288 285 281